Time,TemperatureF,DewpointF,PressureIn,WindDirection,WindDirectionDegrees,WindSpeedMPH,WindSpeedGustMPH,Humidity,HourlyPrecipIn,Conditions,Clouds,dailyrainin,SolarRadiationWatts/m^2,SoftwareType,DateUTC
2013-04-18 00:12:00,24.0,18.0,-100.00,NW,305,0.0,3.0,78,0.00,,,0.01,1.000000,,2013-04-18 07:12:00,
2013-04-18 01:12:00,23.0,17.0,-100.00,SSW,212,1.0,3.0,78,-99.99,,,0.01,1.000000,,2013-04-18 08:12:00,
2013-04-18 02:12:00,22.0,16.0,-100.00,SSE,167,0.0,3.0,79,-99.99,,,0.01,1.000000,,2013-04-18 09:12:00,
2013-04-18 03:12:00,20.0,16.0,-100.00,NE,52,0.0,2.0,84,-99.99,,,0.01,1.000000,,2013-04-18 10:12:00,
2013-04-18 03:23:00,20.0,16.0,-100.00,NE,52,0.0,2.0,84,-99.99,,,0.01,1.000000,,2013-04-18 10:23:00,
2013-04-18 04:12:00,19.0,16.0,-100.00,North,354,0.0,3.0,86,-99.99,,,0.01,1.000000,,2013-04-18 11:12:00,
2013-04-18 05:12:00,18.0,15.0,-100.00,NNW,329,0.0,2.0,87,-99.99,,,0.01,1.000000,,2013-04-18 12:12:00,
2013-04-18 08:22:00,26.0,21.0,-100.00,NNW,347,0.0,2.0,80,-99.99,,,0.01,120.000000,,2013-04-18 15:22:00,
2013-04-18 08:33:00,26.0,21.0,-100.00,NNW,347,0.0,2.0,80,-99.99,,,0.01,120.000000,,2013-04-18 15:33:00,
2013-04-18 08:51:00,38.0,15.0,-100.00,North,349,0.0,2.0,39,0.00,,,0.00,397.000000,,2013-04-18 15:51:00,
2013-04-18 09:22:00,38.0,15.0,-100.00,North,349,0.0,2.0,39,0.00,,,0.00,397.000000,,2013-04-18 16:22:00,
2013-04-18 09:33:00,38.0,15.0,-100.00,North,349,0.0,2.0,39,0.00,,,0.00,397.000000,,2013-04-18 16:33:00,
2013-04-18 09:42:00,38.0,15.0,-100.00,North,349,0.0,2.0,39,0.00,,,0.00,397.000000,,2013-04-18 16:42:00,
2013-04-18 09:51:00,42.0,8.0,-100.00,NNW,330,2.0,6.0,24,0.00,,,0.00,614.000000,,2013-04-18 16:51:00,
2013-04-18 10:12:00,42.0,8.0,-100.00,NNW,330,2.0,6.0,24,0.00,,,0.00,614.000000,,2013-04-18 17:12:00,
2013-04-18 10:22:00,42.0,8.0,-100.00,NNW,330,2.0,6.0,24,0.00,,,0.00,614.000000,,2013-04-18 17:22:00,
2013-04-18 10:33:00,42.0,8.0,-100.00,NNW,330,2.0,6.0,24,0.00,,,0.00,614.000000,,2013-04-18 17:33:00,
2013-04-18 10:42:00,42.0,8.0,-100.00,NNW,330,2.0,6.0,24,0.00,,,0.00,614.000000,,2013-04-18 17:42:00,
2013-04-18 10:51:00,46.0,12.0,-100.00,NE,36,3.0,6.0,25,0.00,,,0.00,785.000000,,2013-04-18 17:51:00,
2013-04-18 11:22:00,46.0,12.0,-100.00,NE,36,3.0,6.0,25,0.00,,,0.00,785.000000,,2013-04-18 18:22:00,
2013-04-18 11:32:00,46.0,12.0,-100.00,NE,36,3.0,6.0,25,0.00,,,0.00,785.000000,,2013-04-18 18:32:00,
2013-04-18 11:42:00,46.0,12.0,-100.00,NE,36,3.0,6.0,25,0.00,,,0.00,785.000000,,2013-04-18 18:42:00,
2013-04-18 11:51:00,48.0,14.0,-100.00,NNW,346,4.0,9.0,25,0.00,,,0.00,910.000000,,2013-04-18 18:51:00,
2013-04-18 12:22:00,48.0,14.0,-100.00,NNW,346,4.0,9.0,25,0.00,,,0.00,910.000000,,2013-04-18 19:22:00,
2013-04-18 12:32:00,48.0,14.0,-100.00,NNW,346,4.0,9.0,25,0.00,,,0.00,910.000000,,2013-04-18 19:32:00,
2013-04-18 12:42:00,48.0,14.0,-100.00,NNW,346,4.0,9.0,25,0.00,,,0.00,910.000000,,2013-04-18 19:42:00,
2013-04-18 12:51:00,50.0,14.0,-100.00,North,355,5.0,10.0,23,0.00,,,0.00,985.000000,,2013-04-18 19:51:00,
2013-04-18 13:12:00,50.0,14.0,-100.00,North,355,5.0,10.0,23,0.00,,,0.00,985.000000,,2013-04-18 20:12:00,
2013-04-18 13:22:00,50.0,14.0,-100.00,North,355,5.0,10.0,23,0.00,,,0.00,985.000000,,2013-04-18 20:22:00,
2013-04-18 13:32:00,50.0,14.0,-100.00,North,355,5.0,10.0,23,0.00,,,0.00,985.000000,,2013-04-18 20:32:00,
2013-04-18 13:42:00,50.0,14.0,-100.00,North,355,5.0,10.0,23,0.00,,,0.00,985.000000,,2013-04-18 20:42:00,
2013-04-18 13:51:00,52.0,15.0,-100.00,NW,309,4.0,9.0,23,0.00,,,0.00,979.000000,,2013-04-18 20:51:00,
2013-04-18 14:22:00,52.0,15.0,-100.00,NW,309,4.0,9.0,23,0.00,,,0.00,979.000000,,2013-04-18 21:22:00,
2013-04-18 14:32:00,52.0,15.0,-100.00,NW,309,4.0,9.0,23,0.00,,,0.00,979.000000,,2013-04-18 21:32:00,
2013-04-18 14:43:00,52.0,15.0,-100.00,NW,309,4.0,9.0,23,0.00,,,0.00,979.000000,,2013-04-18 21:43:00,
2013-04-18 14:51:00,54.0,14.0,-100.00,NNW,329,5.0,10.0,20,0.00,,,0.00,921.000000,,2013-04-18 21:51:00,
2013-04-18 15:22:00,54.0,14.0,-100.00,NNW,329,5.0,10.0,20,0.00,,,0.00,921.000000,,2013-04-18 22:22:00,
2013-04-18 15:32:00,54.0,14.0,-100.00,NNW,329,5.0,10.0,20,0.00,,,0.00,921.000000,,2013-04-18 22:32:00,
2013-04-18 15:42:00,54.0,14.0,-100.00,NNW,329,5.0,10.0,20,0.00,,,0.00,921.000000,,2013-04-18 22:42:00,
2013-04-18 15:51:00,57.0,20.0,-100.00,NNW,339,4.0,10.0,23,0.00,,,0.00,800.000000,,2013-04-18 22:51:00,
2013-04-18 16:21:00,57.0,20.0,-100.00,NNW,339,4.0,10.0,23,0.00,,,0.00,800.000000,,2013-04-18 23:21:00,
2013-04-18 16:32:00,57.0,20.0,-100.00,NNW,339,4.0,10.0,23,0.00,,,0.00,800.000000,,2013-04-18 23:32:00,
2013-04-18 16:42:00,57.0,20.0,-100.00,NNW,339,4.0,10.0,23,0.00,,,0.00,800.000000,,2013-04-18 23:42:00,
2013-04-18 16:51:00,56.0,18.0,-100.00,NNW,332,4.0,12.0,22,0.00,,,0.00,631.000000,,2013-04-18 23:51:00,
2013-04-18 17:12:00,56.0,18.0,-100.00,NNW,332,4.0,12.0,22,0.00,,,0.00,631.000000,,2013-04-19 00:12:00,
2013-04-18 17:21:00,56.0,18.0,-100.00,NNW,332,4.0,12.0,22,0.00,,,0.00,631.000000,,2013-04-19 00:21:00,
2013-04-18 17:32:00,56.0,18.0,-100.00,NNW,332,4.0,12.0,22,0.00,,,0.00,631.000000,,2013-04-19 00:32:00,
2013-04-18 17:42:00,56.0,18.0,-100.00,NNW,332,4.0,12.0,22,0.00,,,0.00,631.000000,,2013-04-19 00:42:00,
2013-04-18 17:51:00,54.0,16.0,-100.00,North,358,3.0,8.0,22,0.00,,,-99.99,341.000000,,2013-04-19 00:51:00,
2013-04-18 18:11:00,54.0,16.0,-100.00,North,358,3.0,8.0,22,0.00,,,-99.99,341.000000,,2013-04-19 01:11:00,
2013-04-18 18:21:00,54.0,16.0,-100.00,North,358,3.0,8.0,22,0.00,,,-99.99,341.000000,,2013-04-19 01:21:00,
2013-04-18 18:31:00,54.0,16.0,-100.00,North,358,3.0,8.0,22,0.00,,,-99.99,341.000000,,2013-04-19 01:31:00,
2013-04-18 18:42:00,54.0,16.0,-100.00,North,358,3.0,8.0,22,0.00,,,-99.99,341.000000,,2013-04-19 01:42:00,
2013-04-18 18:51:00,50.0,18.0,-100.00,West,272,3.0,6.0,28,0.00,,,0.00,34.000000,,2013-04-19 01:51:00,
2013-04-18 19:11:00,50.0,18.0,-100.00,West,272,3.0,6.0,28,0.00,,,0.00,34.000000,,2013-04-19 02:11:00,
2013-04-18 19:21:00,50.0,18.0,-100.00,West,272,3.0,6.0,28,0.00,,,0.00,34.000000,,2013-04-19 02:21:00,
2013-04-18 19:32:00,50.0,18.0,-100.00,West,272,3.0,6.0,28,0.00,,,0.00,34.000000,,2013-04-19 02:32:00,
2013-04-18 19:42:00,50.0,18.0,-100.00,West,272,3.0,6.0,28,0.00,,,0.00,34.000000,,2013-04-19 02:42:00,
2013-04-18 19:51:00,38.0,27.0,-100.00,SW,219,1.0,2.0,64,0.00,,,0.00,13.000000,,2013-04-19 02:51:00,
2013-04-18 20:11:00,38.0,27.0,-100.00,SW,219,1.0,2.0,64,0.00,,,0.00,13.000000,,2013-04-19 03:11:00,
2013-04-18 20:21:00,38.0,27.0,-100.00,SW,219,1.0,2.0,64,0.00,,,0.00,13.000000,,2013-04-19 03:21:00,
2013-04-18 20:32:00,38.0,27.0,-100.00,SW,219,1.0,2.0,64,0.00,,,0.00,13.000000,,2013-04-19 03:32:00,
2013-04-18 20:43:00,38.0,27.0,-100.00,SW,219,1.0,2.0,64,0.00,,,0.00,13.000000,,2013-04-19 03:43:00,
2013-04-18 21:13:00,33.0,27.0,-100.00,WSW,255,0.0,2.0,79,0.00,,,0.00,1.000000,,2013-04-19 04:13:00,
2013-04-18 22:11:00,29.0,25.0,-100.00,NW,306,0.0,2.0,86,-99.99,,,0.00,1.000000,,2013-04-19 05:11:00,
2013-04-18 22:22:00,29.0,25.0,-100.00,NW,306,0.0,2.0,86,-99.99,,,0.00,1.000000,,2013-04-19 05:22:00,
2013-04-18 23:11:00,28.0,24.0,-100.00,North,2,0.0,2.0,85,-99.99,,,0.00,1.000000,,2013-04-19 06:11:00,